DW9584 Weather Reports


time (UTC)temp
C
wind
direction
speed
KPH
gust
KPH
rain 1hr
cm
rain 24hr
cm
rain mn
cm
humidity
%
barometer
mb
20260502163038 13 333 1.6 8.0 0.00 0.00 0.00 45 1013.1
20260502161536 13 73 3.2 8.0 0.00 0.00 0.00 45 1013.3
20260502151505 11 94 1.6 14.5 0.00 0.00 0.00 58 1013.2
20260502123028 10 58 1.6 16.1 0.00 0.00 0.00 75 1013.3
20260502121524 10 219 1.6 11.3 0.00 0.00 0.00 76 1013.2
20260502114511 10 91 0.0 6.4 0.00 0.00 0.00 77 1012.9
20260502113009 10 259 0.0 4.8 0.00 0.00 0.00 78 1012.8
20260502111507 10 264 0.0 6.4 0.00 0.00 0.00 80 1012.9
20260502110027 9 305 0.0 3.2 0.00 0.00 0.00 83 1012.8
20260502104522 9 284 0.0 3.2 0.00 0.00 0.00 85 1012.5
20260502103020 8 244 0.0 0.0 0.00 0.00 0.00 88 1012.4
20260502101520 8 244 0.0 0.0 0.00 0.00 0.00 86 1012.1
20260502091508 10 244 0.0 0.0 0.00 0.00 0.00 81 1012.3
20260502071510 11 219 0.0 3.2 0.00 0.00 0.00 73 1012.0
20260502070015 10 255 0.0 3.2 0.00 0.00 0.00 76 1012.0
20260502064508 10 261 0.0 0.0 0.00 0.00 0.00 78 1012.2
20260502063012 10 261 0.0 0.0 0.00 0.00 0.00 79 1012.3
20260502061510 10 261 0.0 0.0 0.00 0.00 0.00 78 1012.0
20260502060012 10 261 0.0 0.0 0.00 0.00 0.00 76 1012.3
20260502054514 10 261 0.0 0.0 0.00 0.00 0.00 75 1012.4
20260502053014 11 261 0.0 3.2 0.00 0.00 0.00 74 1012.6
20260502051519 11 261 0.0 3.2 0.00 0.00 0.00 73 1012.3
20260502050015 11 261 0.0 1.6 0.00 0.00 0.00 72 1012.7
20260502044516 11 261 0.0 3.2 0.00 0.00 0.00 73 1012.5
20260502043016 10 190 0.0 3.2 0.00 0.00 0.00 76 1012.6
20260502041516 10 183 0.0 0.0 0.00 0.00 0.00 77 1012.4
20260502040018 10 183 0.0 0.0 0.00 0.00 0.00 77 1012.3
20260502034517 10 183 0.0 0.0 0.00 0.00 0.00 77 1012.3
20260502033016 10 183 0.0 0.0 0.00 0.00 0.00 76 1012.2
20260502031512 11 183 0.0 0.0 0.00 0.00 0.00 74 1012.2
20260502030018 11 183 0.0 3.2 0.00 0.00 0.00 73 1011.9
20260502024525 11 183 0.0 0.0 0.00 0.00 0.00 72 1012.4
20260502023020 11 183 0.0 3.2 0.00 0.00 0.00 72 1012.5
20260502021521 11 146 0.0 0.0 0.00 0.00 0.00 70 1012.9
20260502020022 11 219 0.0 0.0 0.00 0.00 0.00 69 1012.6
20260502014521 11 219 0.0 3.2 0.00 0.00 0.00 67 1012.3
20260502013020 11 269 0.0 3.2 0.00 0.00 0.00 66 1012.5
20260502011523 12 119 0.0 3.2 0.00 0.00 0.00 63 1012.4
20260502010027 12 262 0.0 3.2 0.00 0.00 0.00 61 1012.2
20260502004524 12 266 0.0 4.8 0.00 0.00 0.00 59 1012.0
20260502003021 13 243 0.0 6.4 0.00 0.00 0.00 57 1011.7
20260502001509 13 246 0.0 3.2 0.00 0.00 0.00 54 1011.4
20260502000025 13 233 0.0 3.2 0.00 0.00 0.00 52 1011.3
20260501234529 14 240 0.0 3.2 0.00 0.00 0.00 50 1011.3
20260501233023 15 181 0.0 4.8 0.00 0.00 0.00 48 1011.1
20260501231517 15 192 0.0 4.8 0.00 0.00 0.00 45 1011.0
20260501230016 16 285 0.0 8.0 0.00 0.00 0.00 44 1010.9
20260501224514 16 157 0.0 4.8 0.00 0.00 0.00 44 1011.0
20260501223011 16 241 1.6 9.7 0.00 0.00 0.00 44 1011.1
20260501221511 16 162 3.2 8.0 0.00 0.00 0.00 43 1011.2
20260501220024 16 164 1.6 8.0 0.00 0.00 0.00 43 1011.1
20260501214538 16 165 3.2 8.0 0.00 0.00 0.00 40 1011.2
20260501213022 17 165 1.6 9.7 0.00 0.00 0.00 41 1011.2
20260501211521 17 213 3.2 9.7 0.00 0.00 0.00 42 1011.4
20260501210020 17 53 1.6 9.7 0.00 0.00 0.00 44 1011.4
20260501204519 17 302 0.0 8.0 0.00 0.00 0.00 44 1011.3
20260501203014 17 212 1.6 11.3 0.00 0.00 0.00 42 1011.3
20260501201510 17 169 1.6 6.4 0.00 0.00 0.00 40 1011.4
20260501200009 17 281 3.2 12.9 0.00 0.00 0.00 40 1011.5
20260501194511 17 287 1.6 12.9 0.00 0.00 0.00 43 1011.5
20260501193023 17 229 0.0 11.3 0.00 0.00 0.00 39 1011.7
20260501191523 17 170 0.0 8.0 0.00 0.00 0.00 39 1011.7
20260501190037 17 179 3.2 9.7 0.00 0.00 0.00 39 1012.0
20260501184517 16 212 1.6 4.8 0.00 0.00 0.00 43 1012.2
20260501183017 16 53 0.0 8.0 0.00 0.00 0.00 44 1012.4
20260501181519 16 141 0.0 4.8 0.00 0.00 0.00 44 1012.5
20260501180013 16 172 0.0 3.2 0.00 0.00 0.00 41 1012.4